This is the latest recevied weather packets stored in our database for station/object SP9MUF-14. If no packets are shown the sender has not sent any weather packets the latest 10 day(s).
| Time | Temp. | Humidity | Pressure | Rain* | Wind** | Luminosity | Snow |
|---|---|---|---|---|---|---|---|
| 1788615752 | 21.67° C | 45% | 1015.8 hPa | 0 mm | - | 392 W/m² | - |
| 1788615147 | 21.67° C | 47% | 1015.7 hPa | 0 mm | - | 84 W/m² | - |
| 1788614845 | 21.67° C | 46% | 1015.8 hPa | 0 mm | - | 115 W/m² | - |
| 1788614543 | 21.67° C | 45% | 1015.7 hPa | 0 mm | - | 380 W/m² | - |
| 1788614241 | 21.67° C | 45% | 1015.8 hPa | 0 mm | - | 410 W/m² | - |
| 1788613939 | 21.67° C | 44% | 1015.7 hPa | 0 mm | - | 114 W/m² | - |
| 1788613637 | 22.78° C | 43% | 1015.5 hPa | 0 mm | - | 98 W/m² | - |
| 1788613334 | 22.78° C | 43% | 1015.5 hPa | 0 mm | - | 494 W/m² | - |
| 1788613032 | 22.78° C | 42% | 1015.5 hPa | 0 mm | - | 512 W/m² | - |
| 1788612730 | 21.67° C | 43% | 1015.5 hPa | 0 mm | - | 506 W/m² | - |
| 1788612433 | 21.67° C | 43% | 1015.6 hPa | 0 mm | - | 493 W/m² | - |
| 1788612126 | 21.67° C | 43% | 1015.5 hPa | 0 mm | - | 476 W/m² | - |
| 1788611824 | 21.67° C | 45% | 1015.5 hPa | 0 mm | - | 483 W/m² | - |
| 1788611522 | 21.67° C | 49% | 1015.5 hPa | 0 mm | - | 542 W/m² | - |
| 1788611220 | 21.67° C | 51% | 1015.6 hPa | 0 mm | - | 498 W/m² | - |
| 1788610918 | 21.67° C | 51% | 1015.6 hPa | 0 mm | - | 508 W/m² | - |
| 1788610615 | 21.67° C | 50% | 1015.6 hPa | 0 mm | - | 515 W/m² | - |
| 1788610313 | 20.56° C | 50% | 1015.7 hPa | 0 mm | - | 524 W/m² | - |
| 1788610011 | 20.56° C | 51% | 1015.9 hPa | 0 mm | - | 566 W/m² | - |
| 1788609709 | 20.56° C | 53% | 1015.8 hPa | 0 mm | - | 101 W/m² | - |
| 1788609407 | 20.56° C | 53% | 1015.8 hPa | 0 mm | - | 596 W/m² | - |
| 1788609105 | 21.67° C | 55% | 1015.7 hPa | 0 mm | - | 104 W/m² | - |
| 1788608803 | 20.56° C | 54% | 1015.9 hPa | 0 mm | - | 578 W/m² | - |
| 1788608501 | 20.56° C | 54% | 1015.9 hPa | 0 mm | - | 631 W/m² | - |
| 1788608199 | 20.56° C | 56% | 1016 hPa | 0 mm | - | 577 W/m² | - |
* Rain latest hour (hover to see other rain measurements)
** Current wind speed in m/s (hover to see current wind gust speed)